Date String (YYYY-MM-DD hh:mm:ss) UTC,Instrument flags,absolute air pressure of the measurement (hPa),sample flow rate (lpm),inlet stack bypass flow (lpm),air temperature of the measurement (°C),ambient temperature measured by the external sensor (°C),aerosol sample conditioner tube jacket temperature (°C),OPC LED temperature (°C),internal box temperature (°C),relative humidity of the measurement (%),span deviation,mass concentration of particles derived from Lorenz-Mie calculation of OPC scattering (μg/m³),mass concentration of particles derived from Lorenz-Mie calculation of OPC scattering (μg/m³),mass concentration of particles derived from Lorenz-Mie calculation of OPC scattering (μg/m³)
DateTimeUTC,F1_M11,P_M11,Q1_M11,Q2_M11,T1_M11,T2_M11,T3_M11,T4_M11,T5_M11,U1_M11,ZSPAN_M11,X0_M11,X2_M11,X1_M11
2023-06-21 04:00:00,SystemResetWarning,0830.6,5.00,000.00,029.5,027.5,000.0,038.0,030.9,24.3,0000.0,0016.57,0006.00,0004.31
2023-06-21 04:01:00,SystemResetWarning,0830.6,5.00,000.00,029.5,027.7,000.0,038.0,031.0,24.3,0000.0,0015.86,0005.99,0004.30
2023-06-21 04:02:00,SystemResetWarning,0830.6,5.01,000.00,029.5,027.9,000.0,038.0,031.1,24.2,0000.0,0014.97,0005.93,0004.29
2023-06-21 04:03:00,SystemResetWarning,0830.7,5.00,000.00,029.5,028.0,000.0,038.0,031.1,24.8,0000.0,0014.08,0005.92,0004.29
2023-06-21 04:04:00,SystemResetWarning,0830.7,5.01,000.00,029.6,028.1,000.0,038.0,031.2,24.1,0000.0,0014.05,0005.98,0004.29
2023-06-21 04:05:00,SystemResetWarning,0830.7,5.00,000.00,029.6,028.2,000.0,038.1,031.2,24.0,0000.0,0013.98,0005.93,0004.30
2023-06-21 04:06:00,SystemResetWarning,0830.7,4.98,000.00,029.7,027.0,000.0,038.0,031.3,23.7,0000.0,0014.63,0005.93,0004.29
2023-06-21 04:07:00,SystemResetWarning,0830.6,5.00,000.00,029.6,025.2,000.0,038.0,031.2,23.7,0000.0,0015.21,0005.95,0004.29
2023-06-21 04:08:00,SystemResetWarning,0830.6,5.02,000.00,029.6,025.0,000.0,037.9,031.1,23.4,0000.0,0015.01,0005.92,0004.28
2023-06-21 04:09:00,SystemResetWarning,0830.6,5.00,000.00,029.5,025.3,000.0,037.9,030.8,23.6,0000.0,0014.86,0005.86,0004.27
2023-06-21 04:10:00,SystemResetWarning,0830.6,5.00,000.00,029.4,025.7,000.0,037.9,030.8,23.8,0000.0,0015.49,0005.89,0004.26
2023-06-21 04:11:00,SystemResetWarning,0830.6,5.00,000.00,029.4,026.2,000.0,038.0,030.7,23.7,0000.0,0016.22,0005.93,0004.26
2023-06-21 04:12:00,SystemResetWarning,0830.6,5.00,000.00,029.4,026.6,000.0,038.0,030.8,23.7,0000.0,0017.07,0005.93,0004.26
2023-06-21 04:13:00,SystemResetWarning,0830.6,4.99,000.00,029.4,026.9,000.0,038.0,030.8,23.7,0000.0,0017.47,0005.93,0004.26
2023-06-21 04:14:00,SystemResetWarning,0830.7,4.99,000.00,029.4,027.2,000.0,038.0,030.9,23.6,0000.0,0017.34,0005.86,0004.26
2023-06-21 04:15:00,SystemResetWarning,0830.7,5.00,000.00,029.5,027.5,000.0,038.0,030.9,23.6,0000.0,0017.09,0005.82,0004.26
2023-06-21 04:16:00,SystemResetWarning,0830.7,5.01,000.00,029.5,027.7,000.0,038.0,031.0,23.8,0000.0,0017.50,0005.88,0004.26
2023-06-21 04:17:00,SystemResetWarning,0830.8,5.02,000.00,029.5,027.9,000.0,038.0,031.0,23.9,0000.0,0018.07,0005.90,0004.25
2023-06-21 04:18:00,SystemResetWarning,0830.7,5.00,000.00,029.5,028.0,000.0,038.0,031.1,23.7,0000.0,0017.46,0005.87,0004.26
2023-06-21 04:19:00,SystemResetWarning,0830.8,5.00,000.00,029.6,028.1,000.0,038.0,031.1,23.6,0000.0,0017.46,0005.90,0004.26
2023-06-21 04:20:00,SystemResetWarning,0830.8,5.00,000.00,029.6,028.2,000.0,038.1,031.2,23.5,0000.0,0017.51,0005.92,0004.27
2023-06-21 04:21:00,SystemResetWarning,0830.8,5.00,000.00,029.7,028.3,000.0,038.1,031.2,23.4,0000.0,0017.31,0005.88,0004.28
2023-06-21 04:22:00,SystemResetWarning,0830.8,4.98,000.00,029.7,027.0,000.0,038.1,031.3,23.3,0000.0,0016.69,0005.80,0004.28
2023-06-21 04:23:00,SystemResetWarning,0830.8,5.01,000.00,029.7,025.1,000.0,038.0,031.2,23.3,0000.0,0015.84,0005.79,0004.28
2023-06-21 04:24:00,SystemResetWarning,0830.9,5.01,000.00,029.6,024.9,000.0,038.0,031.0,23.4,0000.0,0015.32,0005.78,0004.29
2023-06-21 04:25:00,SystemResetWarning,0830.8,5.00,000.00,029.5,025.2,000.0,038.0,030.8,23.6,0000.0,0015.07,0005.79,0004.30
2023-06-21 04:26:00,SystemResetWarning,0830.8,5.00,000.00,029.4,025.6,000.0,038.0,030.8,23.7,0000.0,0015.44,0005.78,0004.29
2023-06-21 04:27:00,SystemResetWarning,0830.8,5.00,000.00,029.4,026.1,000.0,038.0,030.8,23.6,0000.0,0014.65,0005.76,0004.29
2023-06-21 04:28:00,SystemResetWarning,0830.8,5.00,000.00,029.4,026.5,000.0,038.0,030.8,23.6,0000.0,0014.56,0005.72,0004.30
2023-06-21 04:29:00,SystemResetWarning,0830.8,4.99,000.00,029.4,026.9,000.0,038.0,030.8,23.6,0000.0,0015.47,0005.69,0004.30
2023-06-21 04:30:00,SystemResetWarning,0830.8,5.00,000.00,029.4,027.2,000.0,038.0,030.9,23.5,0000.0,0015.49,0005.66,0004.30
2023-06-21 04:31:00,SystemResetWarning,0830.7,5.01,000.00,029.5,027.4,000.0,038.0,030.9,23.4,0000.0,0014.84,0005.66,0004.30
2023-06-21 04:32:00,SystemResetWarning,0830.8,5.01,000.00,029.5,027.6,000.0,038.0,031.0,23.4,0000.0,0014.67,0005.66,0004.31
2023-06-21 04:33:00,SystemResetWarning,0830.8,5.00,000.00,029.5,027.8,000.0,038.0,031.0,23.4,0000.0,0014.33,0005.72,0004.32
2023-06-21 04:34:00,SystemResetWarning,0830.7,5.00,000.00,029.5,027.9,000.0,038.0,031.1,23.3,0000.0,0014.28,0005.73,0004.32
2023-06-21 04:35:00,SystemResetWarning,0830.8,5.00,000.00,029.6,028.1,000.0,038.1,031.1,23.2,0000.0,0014.79,0005.76,0004.32
2023-06-21 04:36:00,SystemResetWarning,0830.8,5.00,000.00,029.6,028.2,000.0,038.1,031.2,23.0,0000.0,0015.39,0005.81,0004.32
2023-06-21 04:37:00,SystemResetWarning,0830.8,5.00,000.00,029.6,028.3,000.0,038.1,031.2,23.2,0000.0,0015.33,0005.82,0004.33
2023-06-21 04:38:00,SystemResetWarning,0830.8,4.99,000.00,029.7,028.3,000.0,038.1,031.3,23.2,0000.0,0015.30,0005.81,0004.34
2023-06-21 04:39:00,SystemResetWarning,0830.7,4.98,000.00,029.7,027.1,000.0,038.1,031.3,23.2,0000.0,0015.23,0005.87,0004.35
2023-06-21 04:40:00,SystemResetWarning,0830.7,5.01,000.00,029.7,025.2,000.0,038.0,031.2,23.2,0000.0,0015.01,0005.95,0004.36
2023-06-21 04:41:00,SystemResetWarning,0830.7,5.01,000.00,029.6,024.9,000.0,038.0,031.1,23.3,0000.0,0014.44,0005.93,0004.36
2023-06-21 04:42:00,SystemResetWarning,0830.7,5.00,000.00,029.5,025.2,000.0,038.0,030.8,23.6,0000.0,0014.47,0005.96,0004.37
2023-06-21 04:43:00,SystemResetWarning,0830.7,5.00,000.00,029.5,025.6,000.0,038.0,030.8,23.6,0000.0,0014.45,0005.98,0004.38
2023-06-21 04:44:00,SystemResetWarning,0830.7,5.00,000.00,029.5,026.1,000.0,038.0,030.8,23.5,0000.0,0014.66,0005.97,0004.37
2023-06-21 04:45:00,SystemResetWarning,0830.7,4.99,000.00,029.4,026.5,000.0,038.0,030.8,23.6,0000.0,0015.51,0005.99,0004.39
2023-06-21 04:46:00,SystemResetWarning,0830.7,4.98,000.00,029.4,026.8,000.0,038.0,030.8,23.6,0000.0,0016.44,0006.02,0004.41
2023-06-21 04:47:00,SystemResetWarning,0830.6,5.03,000.00,029.5,027.1,000.0,038.0,030.9,23.5,0000.0,0016.45,0006.01,0004.41
2023-06-21 04:48:00,SystemResetWarning,0830.7,5.00,000.00,029.5,027.4,000.0,038.0,030.9,23.4,0000.0,0016.52,0005.99,0004.41
2023-06-21 04:49:00,SystemResetWarning,0830.7,4.99,000.00,029.5,027.6,000.0,038.0,030.9,23.4,0000.0,0017.60,0005.99,0004.42
2023-06-21 04:50:00,SystemResetWarning,0830.7,5.00,000.00,029.5,027.8,000.0,038.0,031.0,23.5,0000.0,0017.91,0005.95,0004.42
2023-06-21 04:51:00,SystemResetWarning,0830.7,5.00,000.00,029.5,027.9,000.0,038.0,031.1,23.3,0000.0,0017.29,0005.91,0004.45
2023-06-21 04:52:00,SystemResetWarning,0830.8,5.00,000.00,029.6,028.0,000.0,038.1,031.1,23.3,0000.0,0017.37,0005.89,0004.45
2023-06-21 04:53:00,SystemResetWarning,0830.8,5.00,000.00,029.6,028.1,000.0,038.1,031.2,23.2,0000.0,0017.81,0005.89,0004.46
2023-06-21 04:54:00,SystemResetWarning,0830.8,5.00,000.00,029.6,028.2,000.0,038.1,031.2,23.2,0000.0,0018.24,0005.89,0004.47
2023-06-21 04:55:00,SystemResetWarning,0830.8,5.00,000.00,029.7,028.3,000.0,038.1,031.2,23.3,0000.0,0018.65,0005.94,0004.47
2023-06-21 04:56:00,SystemResetWarning,0830.8,5.00,000.00,029.7,028.3,000.0,038.1,031.3,23.2,0000.0,0018.47,0005.95,0004.47
2023-06-21 04:57:00,SystemResetWarning,0830.8,4.98,000.00,029.7,027.4,000.0,038.1,031.3,23.1,0000.0,0017.82,0005.94,0004.47
2023-06-21 04:58:00,SystemResetWarning,0830.7,5.01,000.00,029.7,025.2,000.0,038.1,031.3,23.1,0000.0,0016.85,0005.91,0004.48
2023-06-21 04:59:00,SystemResetWarning,0830.7,5.01,000.00,029.7,024.8,000.0,038.0,031.2,23.0,0000.0,0016.89,0005.95,0004.49
